Wind_Speed
23 22 23 24 25 26 26 26 26 25 26 26 25 23 21 21 21 20 20 19 18 16 14 13 13 13 12 12 13 14 13 13 14 14 15 15 16 18 19 20 20 20 21 22 22 22 22 22 21 20 20 20 21 22 21 17 14 13 13 14 14 14 14 13 13 13 13 13 13 12 12 13 14 14 15 16 18 19 20 20 21 21 20 19 18
23 22 22 22 23 25 26 27 27 27 27 28 26 24 22 21 21 21 21 19 18 16 14 13 12 12 13 13 13 14 15 15 15 15 16 17 18 20 21 22 22 23 23 23 24 24 24 23 22 21 20 20 20 21 21 20 16 14 14 14 15 16 15 14 14 14 14 14 14 14 14 15 16 17 19 20 21 21 21 20 20 21 21 21 20
24 23 22 22 22 24 26 28 29 28 28 29 27 25 23 21 21 21 20 19 18 16 14 13 12 12 12 12 12 13 14 15 16 16 17 19 21 22 23 24 25 25 25 25 25 26 25 24 22 22 21 20 20 20 20 20 18 15 15 15 16 17 17 16 15 14 15 16 16 15 16 17 18 20 22 22 23 23 23 23 23 22 22 22 21
26 25 24 23 22 23 26 28 29 30 29 29 28 26 24 22 21 21 20 19 18 17 15 14 13 12 12 11 11 12 13 15 17 18 19 21 23 24 26 26 26 26 27 27 27 27 26 25 23 23 22 21 21 21 20 20 18 16 16 16 17 18 18 18 16 16 17 17 17 17 17 19 20 21 22 23 24 25 26 26 26 25 24 24 24
28 27 26 24 24 24 26 28 30 30 29 28 28 26 25 24 22 21 20 19 18 17 16 15 14 13 11 10 11 12 13 15 17 19 20 22 24 25 27 28 28 28 28 27 27 27 27 25 24 24 23 22 22 22 21 21 19 18 17 17 17 18 19 19 18 19 19 18 18 18 19 20 20 20 22 24 26 28 29 28 27 27 27 27 27
29 29 27 26 26 25 26 28 29 29 28 28 28 27 25 24 23 22 21 19 18 17 16 15 14 13 11 11 11 12 13 15 17 19 21 23 24 26 27 28 28 29 29 28 27 26 26 26 25 25 25 24 23 22 22 21 21 20 19 18 18 19 20 20 20 21 22 21 20 20 22 22 20 20 23 27 30 31 31 30 28 27 28 29 28
30 30 30 28 27 27 27 28 28 28 27 27 27 27 26 25 23 22 21 20 19 18 17 16 15 13 12 11 12 12 14 16 17 18 20 22 23 25 26 26 27 28 29 28 27 25 25 26 26 26 25 24 23 23 22 22 22 22 21 21 21 21 21 21 22 23 23 22 22 23 24 23 21 22 25 29 32 33 33 31 27 26 28 29 28
30 32 31 30 28 28 28 28 28 28 28 28 28 28 27 26 24 23 22 22 21 19 19 17 16 15 13 12 12 13 14 15 16 17 19 20 21 23 24 25 26 27 28 27 26 25 25 25 25 25 25 25 25 24 24 23 23 23 22 23 23 23 22 22 23 23 23 23 24 25 26 24 23 24 27 30 33 34 33 32 29 27 29 29 28
30 32 33 31 29 28 28 28 29 29 29 29 29 28 27 26 25 24 24 23 22 21 20 20 19 16 14 13 13 13 13 13 14 16 18 19 20 21 23 24 25 26 27 27 26 26 25 24 24 25 26 26 26 25 25 24 25 25 24 24 25 25 24 23 23 24 24 25 26 26 27 26 25 27 29 31 34 35 34 33 31 31 32 32 30
30 32 33 31 30 29 30 30 30 30 29 30 30 29 28 27 26 26 25 24 23 22 21 21 20 17 15 14 13 12 11 11 13 15 17 19 19 21 22 24 24 24 25 25 26 26 25 22 22 24 26 27 27 26 26 27 27 26 25 25 26 27 26 25 24 25 25 26 27 27 28 28 26 28 31 33 35 37 35 34 33 34 35 36 33
31 33 32 31 31 31 31 31 31 31 30 29 29 29 29 29 28 28 27 25 24 23 23 22 20 17 16 15 13 12 12 11 12 14 18 19 19 20 22 23 24 24 23 24 25 26 25 22 21 23 26 28 27 27 28 28 29 28 27 27 28 29 29 28 27 27 27 28 28 28 29 28 27 29 32 35 37 38 36 35 35 36 37 38 36
32 32 32 33 33 32 32 32 32 32 32 31 30 30 30 30 30 30 29 28 26 25 24 23 20 18 18 15 14 13 11 10 11 15 19 20 19 20 22 24 25 24 22 22 24 25 25 24 22 22 25 26 27 28 30 30 30 30 29 28 29 31 32 31 30 29 28 29 30 30 29 29 29 30 33 37 38 37 36 35 36 38 38 39 38
32 33 33 34 34 33 33 34 34 33 33 32 31 31 31 32 32 32 31 29 28 28 26 24 22 21 19 16 14 13 10 9 13 16 19 21 20 20 22 24 26 25 23 23 24 24 24 24 23 22 23 26 28 30 32 32 31 31 31 32 32 32 32 32 30 29 29 30 31 31 29 29 30 31 34 37 38 36 36 36 37 38 39 39 38
32 33 34 35 34 33 33 35 36 35 34 33 33 33 33 34 34 33 32 31 30 29 27 25 24 23 19 16 15 13 10 10 13 16 19 21 21 22 24 25 26 25 24 24 24 24 24 24 24 23 22 26 30 32 33 33 34 35 37 36 33 31 33 31 29 29 30 31 33 32 30 29 31 33 35 36 36 35 36 38 39 39 40 39 38
32 33 34 35 34 33 34 35 37 37 36 35 34 34 34 34 34 34 33 32 31 29 27 26 25 23 19 17 16 13 12 13 16 16 19 21 22 23 25 26 26 26 26 26 25 25 24 25 25 23 23 26 28 31 33 34 37 39 39 33 28 28 32 33 30 31 33 33 32 30 29 30 32 33 34 34 35 36 38 40 40 40 40 40 38
34 34 34 35 34 33 33 35 37 38 39 38 36 36 35 34 34 34 34 32 30 28 27 26 25 22 18 17 16 14 14 16 18 17 19 21 22 24 26 26 26 26 27 27 27 25 24 23 23 23 24 24 25 29 32 34 38 39 35 29 26 27 30 30 30 31 32 30 28 28 29 30 31 32 33 34 35 36 39 41 41 41 41 40 38
36 36 35 35 35 33 32 35 37 39 40 39 38 37 36 35 34 33 33 32 30 28 26 26 24 21 18 17 17 16 16 18 18 18 20 22 23 24 25 26 27 27 28 28 27 25 23 22 22 23 24 23 24 27 29 32 37 35 31 30 30 27 25 27 29 30 28 25 25 28 29 30 30 32 33 34 35 38 40 41 41 40 40 40 37
35 37 36 35 34 33 32 34 37 39 40 39 39 38 37 36 35 34 33 31 29 27 26 26 24 21 20 19 18 18 18 18 18 19 21 22 23 24 25 27 28 28 28 29 28 26 23 22 23 25 24 22 22 23 24 28 31 27 25 31 33 28 25 26 26 26 24 23 25 27 29 30 31 31 33 34 36 39 40 41 41 40 39 38 37
35 35 36 37 35 33 32 34 37 39 39 39 39 39 38 37 36 34 32 30 29 28 28 28 26 23 23 22 21 19 19 19 19 19 19 20 21 23 25 27 29 29 29 29 28 27 25 23 24 23 20 18 19 21 24 25 25 21 22 27 30 27 25 23 22 21 21 22 25 28 29 30 31 32 33 36 38 39 39 39 39 38 37 36 36
33 32 34 36 38 37 34 33 36 39 40 40 40 40 39 38 37 35 33 31 30 30 30 30 28 26 25 23 21 20 20 21 21 20 19 20 21 24 27 28 29 29 29 28 28 27 24 22 20 18 15 16 18 20 21 20 19 19 21 24 25 24 22 21 20 20 21 24 27 28 29 30 31 33 35 36 37 38 37 37 36 35 35 35 34
31 30 31 34 38 40 38 35 35 37 39 40 39 38 37 37 37 35 34 33 33 32 32 31 28 26 24 23 21 21 21 21 21 21 20 21 23 25 28 29 29 29 29 28 28 26 23 21 19 16 15 17 18 18 18 18 17 16 17 19 20 20 19 19 21 22 24 26 28 28 29 30 32 33 35 35 35 35 35 34 33 32 33 33 31
33 33 33 34 36 39 40 39 37 37 38 38 38 37 36 35 34 33 33 33 33 33 33 31 27 26 25 23 21 20 20 20 20 20 21 22 25 28 29 30 30 29 28 28 27 26 24 22 20 16 15 16 17 18 19 18 16 13 13 15 17 18 19 20 22 24 26 28 28 28 30 32 32 33 34 35 34 33 32 30 29 29 29 29 29
39 38 38 39 38 37 39 41 41 41 40 38 37 37 37 35 33 32 32 33 33 32 31 29 28 27 26 23 21 19 18 18 19 21 23 25 27 28 28 29 29 28 28 28 27 26 25 21 17 13 14 17 19 20 18 15 12 11 12 14 16 18 20 22 24 25 26 27 28 29 31 32 33 33 33 33 31 29 27 25 25 26 28 28 28
44 42 41 42 41 39 39 41 44 45 43 40 37 36 35 35 33 32 32 32 32 31 30 29 29 28 26 24 22 19 17 17 19 23 25 26 27 27 27 27 28 28 28 27 26 25 22 17 14 14 16 19 20 18 16 13 11 11 12 15 17 19 21 23 24 25 26 27 28 30 31 31 31 30 29 29 27 25 23 23 23 25 27 28 28
47 45 43 43 44 43 40 41 45 49 48 43 39 36 35 34 34 33 32 32 32 32 31 29 28 27 25 24 23 20 19 20 22 24 25 26 28 28 27 27 27 27 26 24 23 22 18 14 14 16 18 19 17 14 12 11 11 12 14 17 19 21 22 23 24 25 26 27 28 29 29 29 27 25 25 25 24 23 22 22 23 25 27 28 27
50 48 48 48 47 47 44 43 45 51 52 46 41 38 36 35 34 33 33 33 33 32 31 30 28 27 25 23 22 22 22 23 25 26 24 25 27 28 27 27 27 26 24 22 20 18 15 14 14 15 15 14 13 12 11 11 12 15 17 19 20 21 22 23 24 25 26 26 27 26 25 24 23 23 23 23 22 22 23 23 23 24 26 27 25
51 52 54 55 52 50 48 46 47 52 54 49 43 40 39 37 37 37 35 34 34 32 31 30 28 26 24 22 22 24 25 26 27 26 24 23 25 25 25 26 25 23 22 20 17 15 13 12 12 13 12 11 11 11 12 13 15 17 18 19 19 21 23 24 24 24 25 25 25 23 22 21 21 22 22 22 22 22 23 24 24 24 25 25 25
52 55 57 60 59 56 52 49 48 52 55 51 45 43 43 43 43 40 34 31 31 31 30 29 27 25 22 21 22 25 27 28 28 26 25 24 25 25 25 24 22 21 19 17 15 12 11 11 12 12 11 11 12 13 14 16 17 17 17 19 21 23 24 24 24 24 24 24 22 21 20 20 20 21 21 21 21 22 23 24 25 25 25 25 24
49 54 58 62 64 63 60 56 51 51 53 52 48 46 47 46 42 35 28 27 29 29 28 27 26 24 22 22 24 26 27 27 26 25 25 24 24 25 24 21 20 18 16 14 13 11 11 11 12 12 12 13 14 15 15 15 15 16 18 21 22 24 24 24 23 23 22 21 20 20 20 20 21 22 23 23 23 24 26 26 26 25 24 24 25
44 49 55 60 63 66 66 63 56 53 54 54 51 50 48 42 34 29 28 30 32 31 29 27 26 25 25 26 27 27 27 26 23 22 22 21 21 22 21 19 18 16 14 12 11 11 11 12 13 14 14 15 14 13 14 14 16 18 20 22 23 24 24 24 23 21 20 19 19 20 20 20 21 23 24 25 25 25 27 28 27 25 24 25 25
46 50 54 58 63 67 67 66 63 59 56 54 52 50 44 37 33 33 34 33 32 29 27 25 24 25 27 28 28 27 26 24 22 21 20 19 19 19 19 17 16 14 12 11 11 11 12 13 14 15 14 13 12 13 14 16 18 19 21 23 24 25 25 24 22 20 19 19 19 19 19 20 23 24 25 26 26 26 27 27 26 25 25 25 25
41 46 53 58 61 63 61 59 57 55 52 49 45 40 36 34 36 38 37 32 28 25 23 23 23 24 26 26 26 25 23 21 20 19 18 17 17 17 17 15 14 12 12 11 11 13 14 14 14 13 12 12 13 14 16 17 19 20 22 23 24 24 24 23 22 21 21 21 21 22 23 24 25 25 25 26 26 25 26 25 24 24 24 24 25
23 30 41 48 51 52 50 46 44 42 40 35 31 28 28 31 34 35 32 28 24 23 22 22 23 24 24 23 22 22 21 20 18 16 15 14 15 16 16 14 12 11 11 12 13 14 14 14 13 13 12 13 14 15 16 18 20 21 22 23 23 23 23 22 22 22 23 23 24 25 26 27 26 26 26 25 25 25 25 23 22 22 23 23 23
13 19 30 38 41 40 36 32 30 28 25 24 25 27 30 31 31 29 26 24 24 23 24 24 23 22 21 20 20 20 19 18 16 15 15 16 16 16 15 13 11 11 11 12 14 14 13 13 13 13 14 15 15 16 18 20 21 22 22 22 22 22 22 22 23 23 23 24 24 25 25 25 25 25 24 23 23 23 23 22 21 22 22 23 22
6 5 9 15 21 23 22 22 23 24 25 25 26 27 29 29 27 25 24 24 25 24 24 22 20 19 18 18 18 18 17 17 17 17 18 17 16 15 13 11 11 11 12 13 14 14 13 13 14 14 15 15 16 17 19 20 21 22 22 22 21 21 22 22 23 23 22 22 23 23 23 23 22 22 21 20 20 21 21 21 21 21 22 21 21
7 4 3 6 10 15 20 23 25 25 24 24 24 25 25 25 24 24 24 24 23 22 21 19 18 18 19 18 16 16 16 16 16 16 16 15 15 13 12 11 11 12 13 14 14 14 13 14 14 15 15 16 17 17 18 19 20 20 20 20 20 20 21 21 21 21 21 21 21 21 21 20 20 19 19 19 19 19 19 19 19 20 20 20 19
16 14 12 13 16 18 20 23 24 23 23 25 25 24 23 22 22 22 22 21 19 18 18 18 19 19 19 17 17 17 17 17 16 15 14 14 13 12 11 11 12 13 15 15 14 14 14 15 15 16 15 16 16 17 18 18 18 19 19 18 18 19 20 20 20 20 20 19 19 19 19 19 18 18 18 18 18 18 18 18 19 19 19 19 19
19 19 21 22 24 25 26 26 25 23 23 23 22 21 21 20 20 20 19 18 18 19 20 20 20 20 20 19 19 18 17 16 15 14 13 12 11 11 11 13 14 15 15 15 14 15 16 16 16 16 15 16 17 17 17 17 18 18 18 17 18 19 19 19 19 19 19 18 18 18 18 18 18 18 18 18 17 17 17 18 18 18 18 18 18
16 18 20 22 23 23 24 24 23 22 23 23 22 22 22 20 19 20 20 20 19 20 19 19 19 20 20 19 17 15 14 13 14 13 12 12 11 12 13 14 15 16 15 15 15 17 17 17 16 15 15 16 17 17 17 18 19 19 19 18 18 18 18 18 18 18 18 17 17 16 17 17 17 18 18 17 17 17 16 16 17 17 17 17 17
15 16 18 19 19 20 20 20 19 20 22 22 22 22 21 20 20 21 21 20 19 18 18 18 18 18 17 15 13 12 12 13 13 13 12 12 12 13 14 15 16 16 16 17 18 19 17 16 15 15 15 16 17 17 18 19 19 19 19 19 19 19 18 18 17 16 16 16 16 16 18 18 17 17 17 16 16 16 15 15 16 16 17 17 17
13 14 16 17 18 19 19 18 18 19 20 20 19 19 19 19 20 21 20 18 17 17 16 16 16 15 14 13 12 12 12 13 13 13 13 13 13 14 15 16 16 17 18 20 20 18 16 15 14 15 15 16 17 17 18 19 18 18 18 19 19 19 18 17 17 16 16 16 16 17 18 18 17 16 16 16 16 15 15 15 15 16 17 17 16
12 13 14 16 17 18 18 18 18 18 18 18 19 19 19 20 20 20 18 16 14 13 13 14 14 14 14 13 13 13 13 13 14 14 14 14 14 15 15 16 17 19 20 20 18 17 15 15 15 15 16 16 16 17 18 18 17 17 17 18 19 19 18 18 17 16 16 16 17 18 18 17 16 15 15 15 15 14 14 14 15 16 16 16 15
14 15 16 17 18 18 17 17 18 18 19 20 20 20 20 20 19 17 14 12 10 12 13 13 13 13 13 13 13 13 13 13 14 14 14 14 14 15 16 17 19 20 19 18 17 16 15 15 15 15 15 16 17 18 17 16 15 16 17 18 18 18 18 18 18 17 17 17 17 17 17 17 16 15 14 14 14 13 13 14 15 16 16 15 15
15 17 18 18 17 17 16 15 16 16 17 18 17 16 16 15 13 12 11 10 11 13 14 13 13 13 13 13 13 13 13 13 14 14 14 14 14 15 17 19 20 19 18 16 16 15 15 15 15 15 15 16 17 16 15 14 15 16 17 17 18 19 19 19 19 18 18 18 17 16 16 16 16 14 14 14 13 13 13 14 15 15 16 15 15
16 16 16 14 13 13 13 12 11 11 11 11 10 11 11 11 10 10 10 10 12 13 14 14 14 14 13 12 13 13 14 15 15 15 15 15 16 17 19 20 19 17 16 16 16 16 16 16 15 15 16 16 15 13 12 13 14 16 16 17 18 19 20 19 19 19 18 18 16 15 15 16 16 14 13 13 13 13 13 13 14 15 15 15 15
14 12 11 9 10 10 10 10 10 11 12 11 10 8 8 8 8 9 9 10 12 13 14 14 13 13 13 13 14 15 15 17 17 17 17 17 18 19 19 19 18 17 16 16 17 17 17 15 14 14 14 14 12 11 12 13 15 16 16 17 18 19 19 19 18 18 18 17 15 14 15 15 15 15 13 13 13 12 12 13 14 15 15 15 15
14 13 12 11 11 11 12 12 12 13 13 12 10 8 8 8 9 9 10 10 11 13 13 12 12 13 14 15 16 17 18 19 19 18 18 18 19 20 20 20 19 19 18 18 18 18 16 15 14 14 14 14 12 12 13 15 15 16 16 17 17 17 17 18 17 16 16 15 15 15 15 15 15 15 14 13 13 12 12 13 14 14 15 15 15
14 14 14 14 15 16 17 16 14 12 11 10 10 9 10 9 9 10 10 10 11 13 13 13 14 15 16 18 19 20 20 20 19 19 19 20 19 19 20 20 20 20 19 19 19 18 17 16 15 15 15 15 14 14 14 16 16 17 17 17 17 17 17 17 17 16 15 15 15 15 15 15 15 15 14 13 13 13 13 13 14 14 15 15 15
13 12 11 13 16 16 15 12 10 10 10 10 10 10 11 11 12 12 12 13 14 15 16 17 17 18 19 19 20 20 20 20 21 21 22 21 19 17 17 17 17 17 17 17 16 16 16 16 16 16 16 15 14 14 15 16 17 18 18 18 18 18 17 17 17 17 16 15 15 14 14 14 15 15 14 14 14 13 13 13 14 14 15 15 16
10 8 7 9 12 12 10 9 8 8 9 10 12 12 13 14 15 15 14 15 16 17 18 18 18 17 18 18 18 19 19 20 20 20 18 17 16 15 14 14 14 13 13 12 12 13 14 15 16 16 16 15 14 14 15 16 17 18 18 18 19 18 18 17 17 16 16 16 15 15 14 14 14 15 15 14 14 14 13 13 13 14 14 15 16
7 7 9 10 9 7 6 7 8 9 11 12 14 15 15 16 17 17 17 18 18 18 17 16 15 14 14 15 15 16 16 16 16 15 14 13 13 13 12 13 13 12 11 11 12 13 14 15 16 16 15 14 14 15 16 17 18 18 18 18 18 18 17 17 17 16 16 16 15 15 15 14 15 15 15 15 15 14 14 14 14 14 14 15 15
Wind_Direction
221 224 226 227 227 222 217 216 216 214 213 212 212 210 208 206 205 206 208 207 205 204 205 207 214 221 229 236 244 255 267 275 281 288 296 301 303 304 306 309 310 310 313 317 318 320 322 322 321 322 324 328 329 330 332 326 306 291 290 286 279 277 276 274 268 268 274 277 279 285 294 301 308 314 318 319 318 317 317 316 316 315 313 310 306
217 222 225 226 225 222 218 217 217 216 213 211 210 209 207 206 206 209 211 211 210 209 208 211 217 223 231 238 245 255 266 276 282 288 294 298 301 303 305 307 309 309 311 313 314 315 317 317 317 316 317 321 325 326 328 328 314 292 286 287 280 278 280 278 273 272 274 274 277 285 293 301 307 310 313 315 315 314 314 313 312 311 310 309 308
214 218 223 226 226 223 219 217 217 217 214 212 210 208 206 205 208 210 211 212 214 213 213 215 219 225 232 238 244 254 264 273 281 288 292 296 299 302 304 305 307 308 310 311 311 310 310 309 309 309 311 314 319 321 322 325 319 299 287 285 282 280 280 278 275 273 270 270 276 283 290 299 305 307 312 316 318 318 315 312 308 306 304 304 303
215 217 220 223 225 224 221 218 218 218 215 213 211 208 207 206 208 210 211 212 214 216 219 221 224 228 230 236 244 252 262 271 280 287 291 295 298 300 302 303 304 306 308 308 306 304 303 302 302 303 305 309 313 316 316 317 316 303 288 282 283 282 279 278 276 272 269 268 272 278 287 298 305 308 313 317 318 318 315 310 305 303 302 303 303
218 217 218 221 222 223 222 220 219 219 216 214 212 209 208 208 209 210 212 213 215 218 223 226 229 231 233 241 251 258 267 274 280 286 291 295 297 299 300 301 303 305 306 304 302 299 298 298 298 297 300 305 308 311 312 311 308 300 288 281 282 281 279 280 278 274 272 271 274 282 293 300 302 307 315 318 319 321 319 313 307 305 304 305 306
223 220 218 220 220 221 223 222 221 220 217 216 213 211 210 210 211 212 214 216 218 221 225 226 228 231 235 244 253 263 271 276 281 286 289 292 294 298 300 301 303 303 302 299 297 295 295 295 295 294 295 299 302 304 306 305 301 295 286 279 277 277 278 279 277 276 276 278 282 288 295 296 296 304 314 318 321 325 323 316 310 307 305 305 306
228 226 222 222 221 219 221 223 223 222 219 217 214 213 213 213 212 214 216 218 221 223 225 226 227 231 237 246 255 264 271 275 280 284 287 291 295 298 300 301 301 299 298 296 294 292 292 291 290 290 290 293 296 297 296 296 295 289 280 274 271 272 275 276 275 276 277 279 282 287 290 290 291 301 311 316 321 324 322 314 308 304 302 302 303
228 229 226 225 223 220 219 221 223 223 220 218 215 214 214 214 214 216 218 220 222 224 226 227 230 235 241 249 256 263 270 277 283 287 290 294 296 298 298 297 296 295 294 295 293 290 289 287 286 285 284 287 291 290 288 288 288 284 276 271 269 270 271 272 273 274 276 278 280 284 286 285 288 299 310 315 318 320 317 309 303 300 298 298 300
228 230 229 228 226 222 218 219 221 221 220 218 216 215 215 215 215 217 219 221 222 224 227 229 233 237 242 249 255 264 273 281 289 293 295 295 294 294 292 290 290 290 292 294 293 291 289 285 283 280 279 284 288 286 284 284 284 283 277 268 266 267 267 268 269 271 273 275 278 282 283 283 290 301 309 313 316 316 312 305 300 299 299 299 301
227 231 232 230 228 224 218 218 219 219 220 218 216 216 215 215 216 218 220 222 224 226 228 230 233 237 241 246 254 263 268 278 290 296 296 294 292 290 288 288 288 288 291 293 291 292 291 284 278 276 276 280 284 284 283 283 283 283 276 265 261 262 262 261 262 265 267 270 274 278 280 284 294 303 308 312 313 313 309 303 299 301 302 302 304
225 230 233 231 229 225 220 218 217 217 218 217 216 217 216 217 218 219 221 223 226 229 230 230 233 235 239 246 253 259 266 279 290 292 291 290 290 289 288 289 290 290 291 289 289 292 291 283 276 274 274 278 282 282 283 283 281 279 274 267 261 259 259 257 256 258 261 266 271 274 278 286 296 303 307 310 310 310 306 302 301 303 303 303 305
223 227 232 231 229 226 221 219 217 217 217 216 215 216 217 218 219 220 221 222 225 228 229 230 231 233 238 245 250 259 269 278 281 282 285 286 286 287 288 289 292 294 292 289 290 292 290 286 282 277 275 277 280 280 280 279 277 275 273 267 259 256 255 253 252 256 260 265 271 274 279 289 296 301 305 307 307 307 304 302 301 303 304 304 305
223 226 230 231 230 226 223 220 219 218 217 216 216 216 217 218 220 221 222 222 224 226 227 229 230 234 239 244 251 259 261 264 273 280 282 282 282 283 285 287 291 295 294 289 288 287 287 289 288 283 278 275 275 276 277 278 276 270 266 265 260 254 252 251 253 259 265 270 274 276 281 289 295 300 304 304 304 304 302 301 301 302 303 304 305
222 224 227 230 231 228 223 221 221 219 218 216 216 217 218 219 220 222 223 223 224 224 225 227 230 235 240 244 252 252 242 259 284 286 280 278 278 279 281 285 292 297 297 292 287 285 286 287 288 287 281 273 272 274 274 274 272 265 261 265 265 255 252 255 256 258 262 267 272 276 281 288 294 299 302 302 302 302 301 300 301 302 303 304 305
224 223 225 228 230 228 224 221 221 220 218 217 217 217 218 219 220 221 223 224 224 223 224 227 231 236 241 245 250 242 234 265 291 287 275 274 273 273 278 285 292 297 298 296 293 289 286 284 285 285 280 275 276 280 280 277 273 266 260 263 265 258 256 257 254 256 262 266 270 276 283 289 295 299 301 300 299 300 299 300 302 304 304 304 307
228 223 223 226 229 229 224 221 221 221 219 217 217 217 219 220 219 220 223 224 225 225 224 227 232 237 240 245 247 234 235 267 286 280 271 269 267 269 277 286 292 296 298 299 298 294 286 283 283 280 277 280 285 288 286 281 276 269 259 257 265 268 268 268 267 271 273 269 269 277 284 291 296 298 299 298 297 298 299 300 303 304 304 306 308
234 227 223 224 227 229 226 221 220 221 219 218 218 218 220 221 220 221 223 224 226 226 227 231 235 237 241 245 239 231 243 268 278 273 268 265 264 270 280 287 291 294 297 299 300 296 287 283 283 281 281 285 288 288 285 283 282 276 261 258 267 275 285 291 285 276 270 265 269 279 286 292 297 297 297 297 297 299 300 301 303 304 305 306 307
239 231 225 224 225 228 226 221 220 221 220 219 219 219 220 221 222 223 225 226 229 230 231 236 237 238 243 241 230 230 250 267 272 270 267 264 266 274 282 287 291 294 297 300 301 297 289 283 283 284 285 287 289 290 288 286 289 285 267 264 273 282 293 293 277 263 262 268 275 283 289 295 298 297 297 298 299 300 301 303 304 304 303 302 302
243 237 231 225 224 227 226 221 219 221 221 221 220 221 221 222 223 225 226 229 231 232 234 238 239 241 243 235 227 235 253 263 268 269 266 266 271 278 283 287 291 294 297 298 299 297 292 287 283 283 287 289 288 290 289 283 283 283 276 275 280 284 283 275 263 261 269 274 280 286 292 296 297 298 299 299 299 300 301 302 302 300 298 297 298
246 244 239 232 226 225 226 223 218 219 222 222 221 221 221 223 224 226 228 230 231 232 235 239 241 243 240 231 229 240 252 259 264 267 267 271 276 280 284 288 292 294 296 296 296 295 293 289 285 283 286 287 284 286 286 278 267 264 268 272 276 276 272 265 264 271 276 279 285 291 294 296 297 297 298 299 298 299 299 299 297 295 293 294 295
251 251 250 245 235 228 226 223 220 219 220 219 219 220 220 222 225 226 227 230 230 231 235 238 241 242 237 230 233 244 252 258 263 266 267 271 278 284 287 290 293 294 294 295 295 294 291 288 285 282 281 283 284 281 276 268 259 256 261 266 269 270 267 265 269 276 281 286 290 293 295 296 297 297 298 299 298 298 297 295 292 291 291 293 295
252 254 256 257 250 239 231 225 222 222 222 218 216 217 218 219 221 223 225 227 228 231 234 237 239 239 232 229 238 247 252 257 264 266 266 273 285 291 289 289 291 293 294 295 294 291 289 289 288 282 277 278 278 272 269 267 265 264 262 262 265 267 267 270 276 282 287 291 294 296 298 298 298 299 300 300 299 297 295 292 290 290 291 293 296
255 254 257 259 257 250 241 233 227 226 226 223 217 215 217 217 218 220 224 226 228 232 233 234 237 235 229 232 242 248 253 259 267 270 269 275 288 293 287 286 290 291 291 293 290 287 288 290 287 276 269 270 268 267 270 272 268 263 262 262 266 270 274 279 284 288 291 294 297 299 300 300 301 302 301 300 299 297 294 291 289 290 291 294 297
259 256 255 256 254 251 248 243 236 230 230 229 223 217 215 216 217 220 226 229 231 232 232 232 234 232 230 235 243 249 257 264 269 272 272 277 287 289 284 285 289 288 288 288 286 284 285 284 274 261 260 266 268 270 272 270 267 269 271 272 275 279 283 287 289 292 296 298 300 302 302 302 303 303 302 301 299 296 291 289 290 291 293 296 299
253 254 254 253 250 247 248 248 242 236 233 231 228 222 217 215 218 223 229 232 232 230 229 229 229 228 231 237 240 246 256 261 269 278 281 284 287 285 283 285 286 284 283 283 281 281 279 274 266 260 259 263 267 268 266 263 266 272 275 277 281 284 287 289 292 296 300 301 301 301 302 304 305 304 301 300 298 294 291 291 292 294 294 296 297
249 250 250 250 248 245 246 246 243 239 235 231 229 228 223 221 224 228 230 230 229 227 224 223 223 226 231 235 238 245 251 257 270 282 285 284 284 281 281 284 283 278 278 279 279 278 274 267 262 258 256 258 259 258 260 264 271 275 276 278 282 284 288 292 297 301 301 300 300 301 303 306 306 304 301 299 296 293 292 294 295 296 296 297 296
251 247 244 243 242 240 241 243 243 239 235 231 229 229 229 229 229 229 228 227 224 220 218 218 221 225 229 233 239 245 251 259 271 281 281 280 281 281 281 281 277 274 275 278 279 276 268 259 254 251 253 255 256 259 265 269 272 274 275 279 284 289 294 298 301 302 300 299 300 303 306 308 308 307 306 303 299 297 297 298 300 300 300 300 299
257 252 246 241 239 237 236 239 242 240 234 229 227 228 229 229 229 228 226 223 217 214 215 219 222 225 230 238 246 252 259 266 273 277 280 280 281 281 280 276 271 271 275 277 275 269 258 250 250 251 253 254 257 262 267 269 272 276 282 288 292 295 298 299 301 300 298 299 303 306 309 313 313 313 312 310 308 306 305 305 305 304 304 304 302
262 258 251 245 241 240 237 234 236 238 233 226 225 227 228 230 231 229 221 211 208 210 215 221 225 230 238 248 256 261 266 268 269 275 280 280 277 275 274 269 266 268 272 272 269 262 255 251 250 250 252 257 260 263 266 271 279 288 293 296 296 296 297 299 299 299 299 303 308 311 313 316 317 317 317 315 313 311 309 308 307 306 307 307 306
264 260 255 247 242 240 238 234 232 233 230 225 224 225 225 227 228 220 207 204 207 211 216 221 226 234 243 251 257 262 263 262 264 272 277 274 269 268 266 264 265 267 268 268 263 257 252 251 251 254 258 261 262 267 275 286 295 298 298 296 296 297 299 301 302 303 304 306 309 311 312 314 316 317 315 311 309 309 309 307 307 308 309 309 307
262 262 261 254 243 237 236 233 230 228 225 222 222 223 220 216 211 204 201 205 209 211 216 223 230 237 243 248 254 258 259 260 264 268 267 263 261 262 264 265 267 268 267 264 256 250 250 252 255 259 261 261 267 278 290 298 301 299 297 297 299 302 304 304 304 305 306 306 308 309 311 313 315 313 309 305 306 307 307 306 307 309 310 308 307
264 264 263 255 242 231 228 228 226 223 220 217 218 218 213 207 202 199 199 204 207 213 222 231 236 241 245 249 253 253 255 259 263 262 259 256 257 262 267 270 269 269 269 263 252 248 251 254 255 256 257 264 278 291 299 301 299 296 297 300 303 305 304 303 305 307 309 311 312 312 312 312 311 308 304 302 304 306 305 304 306 308 308 306 305
267 264 258 249 236 225 220 221 221 221 219 215 209 203 198 198 199 200 202 207 214 223 233 240 244 246 246 247 249 251 256 261 261 258 257 258 261 266 270 270 269 268 265 257 249 246 247 247 248 252 261 275 288 297 299 297 295 296 299 303 305 305 305 307 309 311 312 313 312 311 310 308 306 303 300 301 303 304 303 305 307 308 306 305 306
257 256 251 244 235 224 216 212 210 207 199 189 185 186 188 192 198 203 210 218 226 235 244 249 247 245 244 245 248 254 259 259 253 252 259 264 266 266 265 264 264 263 257 249 243 240 239 241 248 259 272 284 293 296 297 297 298 302 305 307 307 307 307 309 310 310 310 310 309 308 307 306 305 303 301 301 302 302 303 307 309 309 307 307 308
260 264 249 234 221 205 185 172 168 166 165 169 179 187 192 196 203 209 216 225 233 240 246 246 243 243 246 248 248 250 252 252 252 259 265 265 263 262 262 261 259 253 244 237 233 232 236 245 257 269 281 291 296 298 299 300 302 305 307 307 306 305 306 306 306 306 306 305 305 305 306 307 307 306 304 303 301 301 304 308 309 308 307 308 310
172 158 124 128 147 149 145 146 153 162 172 182 189 192 196 202 211 219 226 232 236 238 240 241 245 250 250 247 243 245 250 254 259 263 263 259 257 259 259 255 248 239 230 227 227 233 244 255 266 277 286 292 294 296 296 297 299 302 302 301 301 301 302 303 302 302 302 303 303 305 306 308 309 308 306 304 302 303 307 309 308 308 308 310 311
152 163 166 161 161 164 166 168 174 182 189 192 195 200 208 217 226 231 232 232 232 234 240 244 246 247 246 247 249 252 254 255 256 256 254 252 253 254 251 245 239 231 225 225 231 241 253 264 273 281 286 289 290 290 292 294 297 297 295 295 297 299 300 300 299 300 301 303 304 306 308 310 311 309 307 306 306 309 310 309 308 309 310 311 314
146 152 160 168 176 183 187 190 194 198 200 204 209 217 224 229 233 231 228 226 231 241 246 246 245 245 247 250 250 250 249 249 249 250 251 249 247 247 245 240 234 227 224 229 240 252 262 270 277 282 285 286 287 289 291 293 294 292 292 294 297 298 298 297 296 297 299 300 302 305 307 308 309 309 310 312 311 310 308 306 307 309 311 313 316
161 165 171 177 182 188 194 199 204 208 211 214 215 216 218 222 224 224 227 232 239 244 244 243 245 249 250 247 244 241 240 239 240 243 243 242 242 243 241 236 231 229 232 242 253 261 268 274 280 285 287 285 286 289 291 291 290 290 291 294 296 294 292 292 293 294 296 297 298 300 302 304 309 313 315 313 309 306 304 305 307 310 313 316 317
163 168 174 180 183 186 188 191 194 197 201 204 206 209 214 219 221 224 229 234 236 235 235 236 239 242 241 236 231 229 229 230 232 235 236 236 238 238 236 234 235 237 245 254 261 266 271 278 284 287 285 283 284 286 287 287 287 288 290 293 292 289 287 288 291 294 295 295 297 298 301 306 312 314 311 307 304 303 304 306 309 312 315 318 318
164 169 173 176 179 183 186 190 195 198 201 205 208 209 210 213 217 222 226 229 230 232 234 232 229 228 228 226 223 223 226 228 229 230 230 232 233 233 234 237 241 247 254 260 265 271 278 284 287 284 281 279 280 281 282 282 282 283 286 289 287 284 284 287 291 294 295 295 295 297 301 306 311 311 307 304 303 304 305 308 311 314 316 317 317
176 183 184 181 182 186 190 194 198 199 202 206 207 207 210 215 220 222 224 227 230 232 233 230 226 224 223 221 220 222 224 225 227 229 231 233 234 235 238 244 249 254 259 264 270 278 284 285 282 278 275 275 275 275 276 275 274 276 280 280 279 280 283 286 290 292 293 292 294 298 303 307 308 307 304 302 301 302 305 308 311 313 315 316 316
201 202 202 200 198 199 199 199 200 204 209 212 212 213 217 219 218 217 221 226 227 227 229 228 226 222 221 220 223 225 225 226 231 233 234 235 237 241 246 252 257 260 264 270 277 282 283 280 278 276 274 273 273 272 271 270 270 271 272 271 273 277 281 284 287 290 291 292 295 301 306 306 305 304 302 299 299 301 303 307 310 313 315 315 313
216 217 220 217 213 215 218 216 215 218 224 225 221 218 217 215 211 212 219 221 219 221 224 224 221 220 221 223 225 225 225 229 235 237 238 241 245 249 254 258 260 264 271 278 282 282 279 278 280 280 278 275 273 270 268 267 268 268 269 271 275 279 281 283 286 288 289 292 297 303 305 304 302 301 298 296 296 298 301 305 309 312 313 312 311
221 228 233 231 227 227 224 216 212 215 219 220 219 218 218 219 217 215 214 213 213 218 222 223 222 224 226 227 228 229 231 236 239 241 243 247 250 253 255 258 261 267 275 280 279 277 275 276 280 282 280 276 272 268 266 265 267 270 273 276 279 280 282 285 287 289 290 293 297 299 300 300 299 297 294 292 293 296 298 303 307 310 311 310 308
224 232 237 235 232 229 219 211 214 218 217 216 221 228 232 232 229 225 221 217 217 222 226 226 226 229 231 233 236 237 238 239 242 245 248 251 253 255 257 260 264 269 272 272 271 269 270 272 275 276 275 273 272 271 271 271 271 275 278 280 281 282 284 287 290 292 293 294 293 293 295 296 296 294 291 289 291 293 295 300 305 309 310 310 308
230 235 235 232 228 222 217 219 222 220 218 219 225 233 240 242 237 233 228 221 220 227 233 235 236 238 240 242 243 244 245 246 247 248 250 253 257 261 263 265 267 268 268 266 266 267 269 271 272 270 270 271 274 276 277 276 276 278 280 281 283 286 289 293 296 297 294 291 288 289 291 292 291 290 287 286 287 289 292 297 303 307 310 311 309
233 231 233 238 236 226 220 220 222 223 228 235 237 238 243 245 238 231 228 225 227 234 240 244 245 247 248 248 249 249 250 250 250 251 255 259 262 264 264 265 266 268 267 265 263 264 267 269 270 270 271 272 275 278 280 280 281 283 285 287 289 292 295 298 299 297 293 288 285 286 289 289 288 287 285 283 284 286 289 294 301 306 310 311 309
232 228 236 251 250 234 218 210 213 222 233 241 240 236 237 238 236 237 240 243 244 244 247 249 251 251 251 250 250 251 252 255 259 263 267 269 269 268 266 265 264 265 264 263 262 263 266 268 270 270 270 270 272 276 278 279 281 284 287 290 293 294 294 296 297 296 294 290 286 285 286 286 285 285 283 281 281 282 285 291 297 303 307 309 308
235 231 229 241 241 226 208 202 213 225 231 234 235 235 237 241 246 250 254 256 256 256 257 257 257 256 255 255 257 259 263 267 270 273 274 275 272 269 266 262 260 262 267 271 272 270 269 269 269 270 271 272 274 278 279 279 281 285 288 289 290 289 288 289 290 291 291 289 285 283 283 284 284 282 280 279 279 280 282 287 293 298 303 306 308
242 230 225 229 234 232 226 226 233 238 239 238 239 242 244 248 253 257 259 260 261 262 262 261 259 257 257 259 261 262 263 265 266 267 269 270 269 267 264 263 264 269 276 280 278 274 271 268 268 270 273 276 278 280 281 282 285 287 289 289 289 287 285 284 284 285 286 285 283 281 280 281 281 280 278 277 277 278 280 284 288 293 298 303 307
Height
3154 3155 3157 3158 3160 3161 3163 3164 3166 3168 3170 3171 3173 3175 3178 3180 3182 3183 3185 3186 3187 3188 3189 3190 3191 3192 3192 3193 3194 3195 3195 3195 3195 3195 3195 3195 3196 3196 3196 3196 3195 3195 3194 3193 3193 3192 3191 3191 3190 3189 3189 3188 3187 3186 3186 3185 3184 3184 3185 3185 3185 3185 3185 3185 3184 3183 3182 3182 3181 3181 3181 3180 3179 3178 3178 3178 3177 3177 3176 3175 3174 3173 3172 3172 3171
3152 3153 3154 3156 3157 3159 3160 3162 3163 3165 3167 3168 3170 3173 3175 3177 3179 3181 3182 3183 3185 3186 3187 3188 3189 3190 3190 3191 3192 3192 3193 3193 3193 3193 3193 3193 3193 3193 3193 3193 3193 3193 3192 3191 3190 3190 3189 3189 3188 3188 3187 3187 3186 3185 3184 3183 3182 3182 3182 3182 3182 3182 3183 3183 3183 3182 3181 3181 3180 3179 3179 3178 3177 3176 3176 3176 3175 3174 3174 3173 3172 3171 3170 3169 3168
3149 3151 3152 3153 3154 3156 3158 3159 3160 3162 3163 3165 3168 3170 3172 3174 3176 3178 3180 3181 3182 3183 3184 3186 3187 3187 3188 3189 3190 3190 3190 3190 3190 3190 3190 3190 3190 3191 3191 3190 3190 3190 3190 3189 3188 3187 3187 3186 3186 3185 3185 3185 3184 3183 3182 3181 3180 3180 3180 3180 3180 3180 3180 3180 3180 3180 3180 3179 3179 3178 3177 3177 3176 3175 3173 3173 3172 3171 3170 3170 3169 3168 3167 3166 3165
3147 3148 3149 3150 3152 3154 3155 3157 3158 3159 3160 3162 3165 3167 3169 3171 3173 3175 3177 3178 3180 3181 3182 3183 3184 3185 3185 3186 3187 3188 3188 3188 3188 3188 3188 3188 3188 3188 3188 3187 3187 3187 3187 3186 3186 3184 3184 3183 3183 3182 3182 3182 3181 3181 3180 3179 3178 3178 3178 3178 3178 3178 3178 3178 3178 3178 3178 3178 3177 3177 3176 3175 3174 3173 3171 3170 3169 3167 3166 3165 3164 3163 3162 3161 3160
3144 3145 3147 3148 3149 3151 3153 3154 3155 3156 3158 3160 3162 3165 3166 3168 3170 3172 3174 3175 3177 3178 3179 3180 3181 3182 3183 3183 3184 3185 3186 3186 3186 3185 3186 3186 3186 3186 3185 3184 3184 3184 3184 3183 3183 3182 3181 3181 3180 3179 3179 3178 3178 3178 3177 3176 3176 3175 3175 3175 3176 3176 3176 3176 3176 3175 3175 3176 3175 3174 3173 3173 3172 3171 3169 3167 3166 3164 3163 3161 3160 3159 3157 3156 3155
3141 3143 3144 3145 3146 3148 3150 3151 3152 3154 3156 3157 3159 3161 3163 3165 3167 3169 3171 3172 3174 3175 3177 3178 3178 3179 3180 3181 3182 3182 3183 3183 3183 3183 3183 3183 3183 3183 3183 3182 3181 3180 3180 3180 3179 3179 3178 3178 3178 3177 3176 3175 3175 3175 3174 3174 3173 3172 3172 3172 3173 3173 3173 3173 3173 3173 3173 3173 3172 3171 3171 3170 3170 3168 3166 3164 3162 3161 3160 3158 3157 3155 3154 3152 3151
3138 3140 3141 3142 3143 3145 3147 3148 3150 3152 3153 3155 3157 3158 3160 3162 3164 3166 3168 3169 3171 3172 3174 3175 3176 3177 3177 3178 3179 3179 3180 3180 3180 3181 3181 3181 3181 3180 3180 3179 3178 3177 3177 3176 3176 3175 3175 3175 3174 3174 3173 3173 3173 3173 3172 3171 3171 3170 3170 3170 3170 3170 3170 3170 3170 3169 3169 3169 3169 3169 3169 3168 3167 3165 3164 3161 3159 3158 3156 3155 3155 3154 3151 3150 3148
3135 3136 3138 3139 3140 3141 3143 3146 3147 3149 3151 3152 3153 3155 3157 3159 3161 3163 3164 3166 3167 3169 3171 3172 3173 3174 3174 3175 3176 3176 3176 3176 3177 3177 3178 3178 3178 3177 3176 3176 3175 3174 3173 3173 3172 3172 3171 3171 3171 3171 3170 3170 3170 3170 3169 3169 3169 3168 3168 3167 3167 3166 3167 3167 3166 3166 3165 3166 3166 3166 3165 3165 3164 3162 3161 3159 3157 3155 3153 3151 3151 3150 3149 3147 3146
3131 3132 3134 3135 3137 3138 3141 3142 3144 3146 3147 3149 3150 3152 3154 3155 3157 3159 3160 3162 3164 3166 3167 3169 3169 3171 3172 3172 3172 3173 3173 3173 3174 3174 3175 3175 3175 3174 3173 3172 3171 3170 3170 3169 3169 3168 3167 3167 3167 3167 3167 3167 3167 3167 3166 3166 3166 3165 3165 3164 3164 3163 3163 3163 3163 3162 3162 3162 3162 3162 3161 3161 3161 3159 3157 3156 3153 3152 3150 3148 3146 3146 3144 3142 3142
3127 3129 3130 3132 3134 3136 3138 3139 3141 3142 3144 3145 3147 3148 3150 3152 3154 3155 3156 3158 3160 3162 3164 3165 3166 3168 3168 3169 3169 3169 3170 3170 3171 3171 3171 3171 3171 3171 3169 3168 3168 3167 3166 3165 3165 3165 3164 3164 3164 3164 3164 3164 3163 3163 3163 3162 3162 3162 3162 3162 3161 3161 3160 3160 3160 3159 3159 3158 3157 3157 3156 3156 3156 3155 3153 3152 3150 3147 3146 3144 3142 3141 3138 3136 3137
3124 3125 3127 3129 3131 3132 3134 3136 3137 3138 3140 3142 3143 3145 3147 3149 3150 3151 3153 3154 3156 3158 3160 3161 3163 3164 3165 3165 3166 3166 3167 3168 3168 3168 3168 3168 3168 3167 3166 3165 3164 3163 3162 3161 3161 3161 3161 3160 3160 3160 3161 3160 3160 3159 3159 3158 3158 3158 3158 3158 3158 3157 3157 3156 3156 3155 3154 3154 3153 3153 3152 3152 3152 3151 3149 3147 3145 3143 3141 3139 3137 3136 3134 3131 3131
3120 3121 3123 3125 3127 3129 3131 3132 3133 3134 3136 3138 3140 3142 3143 3145 3146 3147 3149 3151 3153 3154 3156 3158 3160 3161 3161 3162 3163 3163 3164 3165 3166 3165 3165 3164 3164 3163 3162 3161 3160 3160 3159 3158 3157 3157 3157 3157 3157 3157 3157 3157 3156 3155 3154 3154 3154 3154 3154 3154 3153 3152 3152 3151 3152 3151 3151 3151 3150 3150 3149 3148 3147 3147 3145 3143 3141 3139 3137 3135 3134 3131 3130 3127 3125
3116 3118 3120 3121 3123 3125 3127 3128 3129 3131 3132 3134 3136 3138 3140 3141 3142 3143 3145 3148 3150 3151 3153 3154 3156 3157 3158 3159 3160 3161 3162 3162 3163 3162 3162 3161 3160 3159 3159 3158 3157 3156 3155 3154 3154 3154 3154 3154 3153 3153 3153 3153 3152 3151 3150 3150 3151 3151 3150 3148 3148 3148 3147 3147 3149 3150 3149 3148 3147 3147 3147 3145 3143 3143 3142 3139 3136 3135 3133 3131 3130 3128 3125 3123 3121
3113 3115 3116 3118 3119 3121 3123 3124 3125 3127 3129 3131 3133 3134 3136 3136 3138 3139 3141 3144 3146 3148 3150 3152 3153 3154 3155 3156 3157 3158 3159 3159 3160 3159 3158 3158 3157 3156 3155 3154 3153 3153 3151 3150 3150 3150 3150 3150 3149 3149 3149 3148 3148 3147 3146 3146 3145 3144 3142 3143 3145 3146 3146 3145 3146 3146 3145 3144 3143 3143 3143 3142 3139 3139 3137 3135 3132 3131 3129 3126 3125 3123 3121 3118 3117
3109 3111 3113 3114 3116 3117 3119 3120 3121 3123 3125 3127 3129 3130 3132 3133 3134 3136 3137 3139 3142 3145 3147 3148 3150 3151 3152 3153 3154 3155 3156 3156 3156 3155 3154 3154 3153 3152 3151 3150 3149 3149 3148 3146 3146 3146 3146 3146 3145 3145 3144 3144 3143 3142 3141 3141 3139 3137 3138 3141 3144 3145 3144 3142 3142 3141 3140 3140 3139 3139 3139 3138 3136 3134 3133 3131 3129 3127 3124 3122 3120 3118 3115 3113 3112
3106 3107 3108 3110 3112 3113 3115 3116 3117 3119 3121 3123 3124 3126 3128 3129 3131 3133 3134 3136 3139 3141 3143 3145 3146 3148 3149 3150 3151 3152 3152 3153 3152 3152 3151 3150 3149 3148 3147 3146 3145 3145 3144 3143 3142 3142 3142 3141 3141 3140 3139 3139 3139 3138 3137 3135 3133 3133 3137 3140 3140 3140 3139 3138 3138 3138 3137 3136 3136 3136 3135 3134 3132 3130 3129 3127 3125 3123 3120 3117 3116 3113 3110 3107 3106
3102 3103 3105 3106 3108 3110 3111 3112 3113 3115 3117 3118 3120 3122 3124 3126 3128 3130 3131 3133 3136 3138 3140 3142 3143 3145 3146 3147 3148 3149 3149 3149 3149 3148 3147 3147 3146 3144 3143 3142 3141 3140 3140 3139 3138 3137 3137 3137 3136 3136 3135 3135 3136 3135 3133 3131 3130 3132 3136 3136 3135 3135 3135 3134 3134 3134 3133 3132 3132 3132 3132 3130 3128 3127 3125 3123 3121 3118 3115 3112 3111 3108 3105 3103 3101
3098 3100 3101 3103 3105 3106 3107 3109 3110 3111 3113 3114 3116 3118 3121 3123 3125 3127 3129 3131 3134 3136 3138 3139 3140 3141 3142 3143 3144 3145 3146 3146 3146 3145 3144 3144 3142 3141 3140 3139 3137 3137 3136 3135 3134 3133 3133 3133 3132 3132 3132 3132 3132 3131 3130 3130 3130 3131 3132 3131 3131 3132 3132 3131 3131 3130 3129 3128 3128 3128 3127 3126 3124 3123 3121 3119 3117 3114 3110 3108 3106 3104 3101 3099 3097
3095 3097 3098 3100 3101 3102 3103 3105 3106 3108 3109 3111 3113 3116 3118 3121 3123 3125 3128 3130 3132 3133 3134 3135 3136 3137 3138 3139 3140 3141 3142 3143 3143 3142 3141 3141 3139 3138 3137 3135 3134 3134 3133 3131 3130 3129 3129 3129 3129 3129 3129 3129 3128 3127 3127 3128 3128 3128 3128 3128 3128 3128 3129 3129 3128 3127 3126 3126 3125 3125 3124 3122 3120 3119 3117 3115 3112 3109 3106 3104 3101 3099 3097 3095 3093
3093 3094 3095 3097 3097 3098 3099 3101 3103 3105 3107 3109 3111 3113 3116 3118 3121 3123 3125 3127 3128 3129 3130 3131 3132 3134 3135 3135 3136 3137 3138 3139 3139 3138 3138 3137 3136 3134 3133 3133 3132 3131 3129 3128 3127 3126 3126 3126 3126 3126 3126 3125 3125 3124 3124 3123 3123 3124 3125 3124 3125 3126 3126 3126 3125 3124 3124 3123 3123 3122 3120 3118 3117 3115 3113 3111 3108 3105 3103 3100 3097 3095 3093 3091 3089
3090 3091 3092 3093 3094 3095 3096 3098 3101 3103 3105 3107 3109 3111 3113 3115 3117 3120 3122 3123 3124 3125 3126 3127 3129 3130 3131 3132 3133 3134 3135 3135 3135 3134 3134 3133 3132 3131 3131 3130 3129 3127 3126 3125 3124 3123 3123 3123 3123 3122 3122 3121 3121 3120 3120 3119 3119 3120 3120 3121 3121 3122 3122 3122 3122 3122 3121 3120 3119 3118 3116 3114 3113 3111 3109 3106 3104 3101 3098 3096 3094 3091 3089 3087 3086
3086 3088 3088 3089 3091 3092 3094 3095 3097 3099 3101 3103 3105 3107 3109 3112 3114 3116 3118 3119 3120 3121 3123 3124 3125 3126 3128 3129 3129 3130 3131 3131 3130 3130 3130 3129 3127 3127 3127 3127 3125 3124 3123 3122 3121 3121 3120 3120 3119 3118 3118 3117 3117 3116 3116 3116 3116 3117 3117 3118 3118 3118 3119 3119 3119 3118 3117 3116 3115 3113 3111 3110 3108 3106 3103 3101 3098 3096 3094 3092 3090 3088 3086 3084 3082
3082 3083 3084 3085 3087 3089 3091 3092 3093 3093 3095 3098 3101 3103 3105 3107 3109 3112 3113 3114 3116 3117 3119 3120 3121 3122 3124 3125 3126 3127 3127 3127 3126 3126 3125 3124 3123 3123 3123 3123 3122 3121 3120 3119 3118 3118 3117 3116 3115 3115 3114 3114 3114 3114 3114 3114 3114 3114 3115 3115 3115 3116 3116 3116 3115 3114 3113 3112 3110 3109 3107 3105 3103 3101 3098 3096 3093 3092 3090 3088 3087 3085 3083 3081 3079
3076 3078 3080 3081 3083 3084 3085 3087 3087 3087 3089 3091 3094 3097 3100 3102 3104 3106 3108 3109 3111 3113 3115 3116 3117 3119 3120 3122 3123 3123 3123 3123 3123 3122 3121 3120 3119 3119 3119 3118 3118 3118 3117 3116 3115 3114 3114 3113 3112 3112 3112 3112 3111 3112 3112 3112 3112 3112 3112 3113 3113 3113 3113 3112 3111 3111 3109 3108 3106 3104 3102 3100 3098 3096 3094 3091 3089 3088 3087 3085 3084 3082 3080 3078 3077
3069 3072 3074 3076 3077 3078 3079 3080 3081 3081 3082 3084 3087 3091 3094 3096 3098 3100 3102 3104 3106 3108 3110 3112 3113 3115 3117 3118 3119 3120 3119 3119 3118 3118 3117 3115 3114 3114 3115 3115 3115 3114 3114 3113 3112 3111 3110 3110 3109 3109 3109 3109 3110 3111 3110 3110 3110 3110 3110 3111 3110 3110 3110 3109 3108 3107 3106 3104 3102 3100 3098 3096 3094 3092 3090 3088 3086 3085 3083 3082 3081 3079 3077 3075 3074
3064 3067 3068 3069 3071 3072 3072 3073 3074 3075 3076 3078 3081 3085 3088 3090 3092 3094 3095 3097 3100 3102 3105 3107 3109 3111 3113 3115 3116 3115 3115 3114 3113 3112 3112 3110 3109 3109 3110 3110 3110 3110 3110 3109 3108 3107 3107 3107 3107 3107 3107 3107 3108 3108 3108 3108 3108 3109 3109 3108 3108 3107 3106 3106 3105 3103 3102 3100 3098 3096 3094 3092 3091 3089 3087 3085 3083 3082 3080 3079 3078 3076 3074 3072 3071
3058 3059 3060 3062 3063 3064 3065 3066 3067 3068 3069 3072 3076 3079 3082 3084 3085 3085 3087 3090 3093 3097 3100 3103 3106 3107 3109 3110 3111 3110 3110 3109 3108 3107 3107 3106 3106 3105 3105 3105 3106 3106 3106 3105 3104 3104 3104 3104 3105 3105 3105 3105 3106 3106 3106 3106 3106 3106 3106 3105 3104 3104 3103 3102 3101 3100 3097 3095 3094 3092 3091 3090 3088 3086 3084 3082 3080 3079 3077 3075 3074 3072 3071 3069 3067
3050 3050 3052 3054 3055 3056 3057 3058 3059 3060 3062 3066 3069 3073 3075 3076 3075 3076 3080 3084 3089 3093 3097 3100 3102 3103 3104 3105 3105 3105 3104 3103 3103 3102 3102 3102 3103 3102 3101 3101 3101 3101 3101 3101 3101 3101 3102 3102 3102 3102 3103 3103 3103 3104 3104 3104 3104 3104 3103 3102 3101 3100 3099 3098 3097 3096 3093 3092 3090 3089 3088 3086 3085 3083 3081 3079 3077 3076 3074 3072 3070 3069 3067 3066 3064
3043 3043 3044 3046 3047 3048 3049 3050 3051 3053 3055 3059 3063 3066 3068 3069 3072 3075 3078 3082 3087 3091 3094 3096 3098 3099 3100 3100 3100 3099 3099 3098 3098 3098 3097 3098 3099 3099 3098 3097 3097 3097 3098 3098 3099 3099 3099 3099 3100 3100 3101 3101 3101 3101 3101 3101 3101 3100 3099 3098 3098 3097 3095 3094 3093 3092 3090 3088 3087 3086 3084 3083 3081 3079 3077 3076 3074 3073 3071 3069 3067 3066 3064 3062 3061
3036 3035 3035 3036 3037 3039 3039 3041 3043 3046 3048 3052 3055 3058 3061 3065 3071 3075 3077 3080 3083 3087 3089 3092 3094 3095 3096 3095 3095 3094 3093 3093 3094 3093 3093 3094 3095 3095 3095 3094 3094 3094 3095 3095 3096 3096 3096 3097 3097 3097 3098 3098 3098 3099 3098 3098 3098 3097 3096 3095 3094 3093 3091 3090 3089 3088 3087 3085 3084 3083 3081 3080 3078 3076 3075 3073 3072 3070 3068 3066 3065 3063 3061 3059 3057
3027 3026 3025 3024 3026 3029 3030 3033 3036 3039 3041 3044 3048 3051 3056 3061 3066 3071 3074 3077 3080 3083 3085 3087 3089 3090 3091 3090 3090 3090 3089 3089 3089 3089 3090 3091 3091 3092 3092 3091 3091 3091 3092 3092 3093 3093 3093 3094 3094 3095 3095 3096 3096 3096 3095 3095 3094 3093 3093 3092 3090 3089 3087 3086 3086 3085 3084 3083 3081 3080 3078 3077 3075 3074 3072 3071 3069 3068 3066 3064 3062 3060 3058 3056 3055
3018 3018 3016 3014 3015 3020 3025 3029 3032 3035 3038 3042 3046 3050 3054 3058 3062 3067 3071 3074 3077 3080 3082 3083 3085 3086 3086 3086 3086 3086 3085 3085 3086 3086 3086 3087 3088 3089 3089 3089 3089 3089 3089 3089 3090 3090 3091 3091 3091 3092 3093 3093 3093 3093 3092 3091 3091 3090 3089 3088 3087 3085 3084 3083 3083 3082 3080 3079 3077 3076 3074 3073 3072 3071 3070 3068 3067 3066 3064 3062 3060 3057 3056 3054 3052
3015 3016 3014 3011 3011 3015 3020 3025 3030 3035 3039 3044 3048 3051 3055 3059 3062 3066 3069 3072 3074 3076 3078 3079 3080 3081 3081 3082 3082 3082 3082 3082 3082 3082 3083 3083 3084 3085 3086 3087 3087 3087 3086 3087 3087 3087 3088 3088 3089 3090 3091 3091 3090 3089 3088 3088 3087 3086 3085 3084 3083 3082 3081 3080 3079 3078 3076 3075 3073 3072 3071 3070 3069 3068 3067 3065 3064 3063 3061 3059 3057 3055 3053 3052 3050
3013 3014 3014 3013 3013 3015 3018 3022 3028 3035 3039 3044 3049 3052 3056 3059 3062 3065 3067 3069 3071 3072 3073 3075 3076 3077 3078 3079 3079 3079 3079 3079 3078 3078 3079 3080 3080 3081 3083 3084 3084 3084 3084 3084 3084 3085 3085 3086 3087 3087 3088 3088 3087 3086 3085 3084 3082 3081 3081 3080 3080 3079 3077 3076 3075 3074 3073 3072 3071 3070 3069 3067 3066 3065 3064 3063 3061 3060 3058 3056 3054 3053 3051 3050 3048
3011 3012 3015 3016 3016 3018 3020 3022 3028 3035 3039 3044 3049 3053 3056 3058 3061 3063 3065 3066 3067 3069 3070 3071 3072 3074 3074 3075 3075 3075 3075 3075 3075 3075 3075 3076 3077 3078 3079 3080 3081 3081 3081 3081 3082 3082 3083 3084 3084 3085 3084 3084 3083 3082 3081 3079 3078 3077 3077 3077 3076 3075 3074 3074 3073 3072 3071 3070 3068 3067 3066 3065 3064 3062 3061 3060 3058 3057 3056 3054 3052 3051 3049 3048 3046
3010 3012 3018 3022 3023 3024 3025 3027 3032 3037 3041 3045 3049 3051 3054 3056 3059 3060 3061 3063 3064 3065 3067 3068 3069 3070 3071 3071 3071 3071 3072 3072 3073 3072 3073 3073 3074 3075 3076 3077 3077 3078 3078 3079 3079 3080 3081 3081 3082 3082 3081 3080 3079 3078 3077 3076 3076 3075 3075 3075 3074 3073 3072 3072 3071 3070 3069 3067 3066 3065 3064 3063 3061 3060 3058 3057 3055 3054 3053 3052 3050 3049 3047 3046 3044
3012 3012 3016 3022 3026 3028 3030 3033 3036 3039 3042 3045 3047 3049 3052 3055 3057 3058 3059 3060 3061 3063 3064 3065 3066 3066 3067 3068 3068 3068 3069 3069 3070 3070 3070 3071 3071 3072 3073 3073 3074 3075 3076 3076 3077 3078 3078 3079 3079 3079 3078 3077 3076 3075 3075 3074 3074 3073 3073 3073 3072 3072 3070 3069 3068 3067 3066 3065 3064 3063 3062 3060 3059 3057 3056 3054 3053 3052 3051 3049 3048 3047 3045 3044 3042
3016 3015 3017 3020 3024 3028 3031 3034 3037 3040 3042 3045 3047 3048 3051 3053 3055 3057 3057 3058 3059 3060 3061 3061 3062 3062 3063 3064 3065 3065 3065 3066 3066 3067 3067 3067 3068 3069 3070 3070 3071 3072 3073 3074 3074 3075 3076 3076 3076 3075 3075 3074 3073 3072 3072 3072 3071 3071 3071 3071 3070 3069 3068 3067 3066 3065 3064 3063 3062 3061 3060 3058 3056 3055 3053 3052 3051 3050 3049 3048 3046 3045 3044 3042 3040
3019 3019 3020 3022 3024 3028 3031 3034 3037 3039 3041 3044 3046 3047 3048 3050 3052 3054 3055 3056 3056 3056 3057 3058 3059 3060 3061 3061 3061 3061 3062 3062 3063 3064 3064 3064 3065 3066 3066 3067 3068 3069 3070 3071 3072 3072 3073 3073 3072 3072 3071 3070 3070 3069 3069 3069 3068 3068 3068 3068 3067 3067 3066 3065 3064 3063 3062 3061 3060 3059 3058 3056 3054 3052 3051 3050 3049 3048 3047 3046 3044 3043 3042 3040 3038
3020 3020 3022 3023 3025 3028 3030 3033 3035 3038 3040 3041 3043 3044 3046 3047 3049 3050 3052 3052 3052 3053 3054 3055 3056 3058 3059 3059 3059 3059 3059 3059 3060 3061 3061 3062 3062 3063 3063 3064 3065 3066 3067 3068 3069 3069 3070 3069 3069 3068 3068 3067 3067 3067 3067 3066 3065 3065 3065 3064 3064 3064 3063 3062 3062 3061 3060 3059 3058 3056 3055 3053 3051 3050 3049 3048 3047 3046 3045 3044 3043 3041 3039 3038 3037
3020 3021 3023 3024 3026 3028 3030 3032 3035 3037 3039 3040 3041 3042 3044 3045 3046 3047 3048 3049 3049 3049 3050 3052 3053 3055 3055 3055 3056 3056 3056 3057 3058 3058 3058 3059 3059 3060 3061 3061 3062 3063 3064 3065 3065 3066 3066 3065 3065 3065 3065 3065 3065 3065 3064 3064 3063 3063 3062 3061 3061 3061 3060 3060 3059 3058 3057 3056 3055 3054 3052 3051 3049 3048 3047 3047 3046 3045 3043 3042 3041 3039 3038 3036 3035
3021 3022 3024 3025 3026 3027 3029 3032 3034 3036 3037 3038 3039 3040 3041 3042 3042 3043 3044 3045 3046 3047 3048 3049 3050 3051 3052 3052 3053 3053 3054 3055 3055 3056 3056 3056 3057 3058 3058 3059 3060 3061 3062 3062 3062 3061 3061 3062 3062 3063 3063 3063 3063 3062 3062 3062 3061 3060 3060 3059 3059 3058 3057 3056 3056 3055 3054 3053 3052 3051 3050 3049 3048 3046 3045 3045 3044 3043 3041 3040 3039 3037 3036 3035 3033
3022 3023 3024 3025 3026 3028 3029 3031 3033 3034 3035 3036 3037 3038 3039 3039 3039 3039 3040 3042 3044 3046 3047 3047 3048 3049 3049 3050 3050 3051 3052 3053 3053 3053 3054 3054 3055 3056 3056 3057 3057 3058 3058 3057 3057 3057 3058 3059 3060 3060 3060 3060 3059 3059 3059 3059 3058 3058 3057 3057 3056 3055 3054 3053 3052 3051 3050 3050 3049 3048 3048 3047 3045 3044 3043 3043 3042 3041 3039 3038 3037 3036 3034 3033 3031
3022 3022 3023 3024 3026 3028 3029 3030 3031 3031 3032 3033 3034 3036 3037 3038 3037 3037 3038 3040 3042 3044 3045 3045 3046 3046 3047 3047 3048 3049 3050 3050 3050 3051 3051 3052 3053 3054 3054 3054 3054 3054 3053 3053 3053 3054 3055 3055 3056 3056 3056 3056 3056 3056 3056 3055 3054 3054 3054 3053 3052 3051 3050 3049 3049 3048 3047 3047 3046 3046 3045 3044 3043 3042 3041 3041 3040 3039 3038 3036 3035 3034 3033 3031 3030
3021 3022 3022 3023 3025 3025 3026 3027 3028 3029 3030 3030 3032 3034 3036 3037 3037 3037 3037 3039 3040 3041 3042 3043 3044 3044 3044 3044 3045 3046 3047 3047 3048 3048 3049 3050 3051 3051 3051 3051 3051 3050 3050 3050 3050 3051 3052 3052 3053 3052 3052 3053 3053 3053 3053 3052 3051 3051 3050 3049 3048 3047 3047 3046 3046 3045 3045 3044 3044 3043 3043 3042 3041 3040 3039 3039 3038 3037 3036 3035 3034 3032 3031 3030 3029
3020 3021 3021 3022 3022 3023 3024 3025 3026 3026 3027 3029 3030 3033 3034 3034 3035 3035 3036 3037 3038 3039 3040 3041 3041 3041 3041 3041 3042 3043 3044 3045 3045 3046 3047 3047 3048 3048 3048 3048 3047 3047 3047 3048 3048 3049 3049 3050 3050 3049 3049 3050 3050 3050 3049 3049 3048 3047 3047 3046 3045 3045 3044 3044 3043 3043 3042 3042 3041 3041 3040 3039 3039 3038 3037 3036 3036 3035 3034 3033 3032 3031 3030 3028 3027
3018 3019 3019 3020 3020 3021 3022 3023 3023 3024 3025 3027 3028 3030 3031 3032 3033 3033 3034 3035 3036 3037 3037 3038 3038 3038 3038 3039 3040 3041 3041 3042 3042 3043 3044 3045 3045 3045 3044 3044 3044 3044 3045 3045 3046 3046 3046 3046 3046 3047 3047 3047 3047 3047 3046 3045 3045 3044 3044 3044 3043 3042 3042 3041 3041 3041 3040 3040 3039 3038 3038 3037 3036 3036 3035 3034 3034 3033 3032 3031 3030 3029 3028 3027 3026
3017 3018 3018 3019 3019 3019 3020 3021 3021 3023 3024 3025 3026 3028 3029 3029 3030 3030 3031 3032 3033 3034 3034 3035 3035 3035 3036 3036 3037 3038 3038 3038 3039 3040 3041 3041 3042 3042 3041 3040 3040 3041 3041 3042 3043 3043 3043 3043 3043 3044 3045 3045 3045 3044 3043 3042 3042 3041 3041 3041 3040 3040 3039 3039 3038 3038 3038 3037 3037 3036 3035 3035 3034 3034 3033 3032 3032 3031 3030 3030 3029 3028 3027 3026 3024
3014 3015 3016 3017 3017 3017 3018 3018 3020 3022 3023 3023 3024 3025 3026 3026 3026 3027 3028 3029 3030 3031 3031 3032 3032 3032 3033 3034 3034 3035 3035 3035 3036 3036 3037 3037 3037 3037 3037 3037 3038 3038 3038 3039 3039 3039 3039 3040 3040 3041 3042 3042 3042 3041 3040 3039 3039 3038 3038 3038 3037 3037 3037 3036 3036 3035 3035 3034 3034 3033 3033 3032 3032 3031 3031 3030 3030 3029 3029 3028 3027 3026 3025 3024 3023
3012 3013 3014 3015 3016 3016 3017 3017 3018 3020 3021 3021 3022 3022 3022 3022 3023 3024 3025 3026 3027 3027 3028 3028 3029 3030 3031 3031 3032 3032 3032 3032 3032 3033 3033 3033 3033 3034 3034 3035 3035 3035 3035 3035 3035 3036 3036 3037 3037 3038 3039 3039 3038 3038 3037 3037 3036 3036 3036 3035 3035 3035 3034 3034 3034 3033 3032 3032 3031 3031 3030 3030 3029 3029 3029 3028 3028 3027 3027 3026 3025 3024 3024 3022 3021
3011 3013 3014 3014 3015 3015 3015 3015 3016 3018 3019 3019 3019 3020 3020 3019 3020 3020 3021 3022 3023 3024 3025 3026 3027 3028 3029 3029 3029 3030 3030 3030 3029 3029 3030 3030 3030 3031 3031 3031 3031 3031 3031 3032 3032 3033 3033 3034 3035 3035 3036 3035 3035 3035 3034 3034 3033 3033 3033 3033 3033 3032 3032 3032 3031 3030 3030 3029 3029 3028 3028 3027 3027 3027 3026 3026 3026 3025 3025 3024 3023 3023 3022 3021 3020